YD1OCG-15 Weather Reports


time (UTC)temp
C
wind
direction
speed
KPH
gust
KPH
rain 1hr
cm
rain 24hr
cm
rain mn
cm
humidity
%
barometer
mb
20260508080723 28 342 17.7 0.0 0.00 0.00 0.00 77 1008.0
20260508073723 28 342 17.7 0.0 0.00 0.00 0.00 79 1009.0
20260508070723 29 331 22.5 0.0 0.00 0.00 0.00 82 1008.0
20260508063723 28 331 22.5 0.0 0.00 0.00 0.00 71 1009.0
20260508060723 30 333 20.9 0.0 0.00 0.00 0.00 73 1009.0
20260508053723 30 335 22.5 0.0 0.00 0.00 0.00 73 1009.0
20260508050723 29 345 17.7 0.0 0.00 0.00 0.00 82 1009.0
20260508043723 29 345 17.7 0.0 0.00 0.00 0.00 73 1009.0
20260508040723 29 2 12.9 0.0 0.00 0.00 0.00 88 1010.0
20260508033723 29 2 12.9 0.0 0.00 0.00 0.00 72 1010.0
20260508030723 28 21 11.3 0.0 0.00 0.00 0.00 88 1011.0
20260508023723 28 21 11.3 0.0 0.00 0.00 0.00 76 1011.0
20260508020723 29 79 8.0 0.0 0.00 0.00 0.00 90 1011.0
20260508013723 30 79 8.0 0.0 0.00 0.00 0.00 80 1012.0
20260508010723 28 124 9.7 0.0 0.00 0.00 0.00 91 1012.0
20260508003723 29 124 9.7 0.0 0.00 0.00 0.00 81 1012.0
20260508000723 27 140 11.3 0.0 0.00 0.00 0.00 88 1012.0
20260507233723 27 138 11.3 0.0 0.00 0.00 0.00 88 1012.0
20260507230724 25 148 12.9 0.0 0.00 0.00 0.00 89 1011.0
20260507223723 25 148 12.9 0.0 0.00 0.00 0.00 90 1011.0
20260507220723 26 146 12.9 0.0 0.00 0.00 0.00 90 1011.0
20260507213723 26 146 12.9 0.0 0.00 0.00 0.00 91 1011.0
20260507210723 26 142 11.3 0.0 0.00 0.00 0.00 93 1011.0
20260507203724 26 142 11.3 0.0 0.00 0.00 0.00 95 1011.0
20260507200723 26 142 9.7 0.0 0.00 0.00 0.00 96 1011.0
20260507193723 26 142 9.7 0.0 0.00 0.00 0.00 95 1011.0
20260507190724 26 141 9.7 0.0 0.00 0.00 0.00 95 1011.0
20260507183723 26 141 9.7 0.0 0.00 0.00 0.00 89 1011.0
20260507180724 26 139 8.0 0.0 0.00 0.00 0.00 92 1012.0
20260507173722 26 143 6.4 0.0 0.00 0.00 0.00 92 1012.0
20260507170723 26 147 6.4 0.0 0.00 0.00 0.00 90 1012.0
20260507163722 27 147 6.4 0.0 0.00 0.00 0.00 89 1012.0
20260507160728 26 162 8.0 0.0 0.00 0.00 0.00 85 1012.0
20260507153724 26 162 8.0 0.0 0.00 0.00 0.00 91 1012.0
20260507150724 26 168 8.0 0.0 0.00 0.00 0.00 90 1012.0
20260507143723 27 168 8.0 0.0 0.00 0.00 0.00 90 1012.0
20260507140723 27 152 8.0 0.0 0.00 0.00 0.00 88 1012.0
20260507133723 27 152 8.0 0.0 0.00 0.00 0.00 90 1012.0
20260507130725 27 130 9.7 0.0 0.00 0.00 0.00 89 1012.0
20260507123723 29 130 9.7 0.0 0.00 0.00 0.00 91 1012.0
20260507120724 28 111 11.3 0.0 0.00 0.00 0.00 89 1011.0
20260507113723 28 124 9.7 0.0 0.00 0.00 0.00 90 1011.0
20260507110724 28 360 1.6 0.0 0.00 0.00 0.00 87 1010.0
20260507103723 28 360 1.6 0.0 0.00 0.00 0.00 88 1010.0
20260507100724 28 322 9.7 0.0 0.00 0.00 0.00 83 1009.0
20260507093724 29 322 9.7 0.0 0.00 0.00 0.00 84 1009.0
20260507090723 29 333 12.9 0.0 0.00 0.00 0.00 78 1009.0
20260507083728 29 333 12.9 0.0 0.00 0.00 0.00 81 1009.0